Location: Helsinki
(60.1699°N, 24.9384°E)
Time: 15:59:25
(UTC+02:00)

Tiros 1 - Pass Details

Date: 07 October 2022
Orbit: 629 x 662 km, 48.4° (Epoch: 07 December)

Event Time Altitude Azimuth Distance (km) Brightness Sun altitude
Rises 01:11:18 0° 232° (SW) 2,991 - -35.2°
Reaches altitude 10° 01:14:13 10° 215° (SW) 2,078 - -35.2°
Maximum altitude 01:17:34 19° 171° (S) 1,562 - -35.2°
Drops below altitude 10° 01:20:54 10° 126° (SE) 2,072 - -35.2°
Sets 01:23:47 0° 109° (ESE) 2,979 - -35.1°
